Terminal Aerodrome Forecast
Issued by NWS Tuscon, AZ

Home | Current Version | Previous Version | Text Only | Print | Product List | Glossary On
Versions: 1 2 3 4 5 6 7 8 9 10 11 12 13
750
FTUS45 KTWC 121720
TAFDUG
TAF
KDUG 121720Z 1218/1318 VRB04KT P6SM SKC
     FM121900 13008KT P6SM FEW250
     FM130400 06005KT P6SM FEW250=

USA.gov is the U.S. government's official web portal to all federal, state and local government web resources and services.